Willimantic, CT

12:46 PM EST on December 05, 2019 (GMT -0500)
Windham

Weather History for KIJD - October, 2019

Change the Weather History Date:

Tuesday, October 8, 2019

  Actual Average Record
Temperature  
Mean Temperature 55 °F -  
Max Temperature 62 °F 65 °F 88 °F (1963)
Min Temperature 48 °F 37 °F 20 °F (1954)
Degree Days  
Heating Degree Days 10    
Growing Degree Days 5 (Base 50)    
Moisture  
Dew Point 52 °F    
Average Humidity 88    
Maximum Humidity 100    
Minimum Humidity 58    
Precipitation  
Precipitation 0.01 in - - ()
Sea Level Pressure  
Sea Level Pressure 30.24 in    
Wind  
Wind Speed 3 mph ()    
Max Wind Speed 10 mph    
Max Gust Speed -    
Visibility 9.6 miles    
Events Rain    
Averages and records for this station are not official NWS values.
T = Trace of Precipitation, MM = Missing Value Source: Averaged Metar Reports

Daily Weather History Graph

Daily Weather History Graph

Search for Another Location

Airport or City:

Astronomy

Oct. 08, 2019 Rise Set
Actual Time 6:52 AM EDT 6:19 PM EDT
Civil Twilight 6:25 AM EDT 6:46 PM EDT
Nautical Twilight 5:52 AM EDT 7:18 PM EDT
Astronomical Twilight 5:20 AM EDT 7:51 PM EDT
Moon 4:21 PM EDT (10/8) 1:33 AM EDT (10/8)
Length of Visible Light 12h 21m
Length of Day
11h 26m
Waxing Gibbous, 77% of the Moon is Illuminated
Oct 8
Waxing Gibbous
Oct 13
Full
Oct 21
Last Quarter
Oct 27
New
Nov 4
First Quarter

Hourly Weather History & Observations

Time (EDT) Temp. Dew Point Humidity Pressure Visibility Wind Dir Wind Speed Gust Speed Precip Events Conditions
12:52 AM 57.9 °F 57.9 °F 100% 30.21 in 5.0 mi NW 3.5 mph - 0.01 in Rain Light Rain
1:18 AM 57.9 °F 57.0 °F 97% 30.20 in 5.0 mi North 4.6 mph - 0.00 in Rain Light Rain
1:27 AM 57.9 °F 57.0 °F 97% 30.21 in 10.0 mi NNW 3.5 mph - 0.00 in   Overcast
1:50 AM 57.2 °F 55.4 °F 94% 30.21 in 10.0 mi Calm Calm - 0.00 in   Overcast
1:52 AM 57.9 °F 55.9 °F 93% 30.21 in 10.0 mi Calm Calm - 0.00 in   Overcast
2:04 AM 57.9 °F 55.9 °F 93% 30.21 in 10.0 mi NW 5.8 mph - N/A   Overcast
2:52 AM 57.0 °F 55.9 °F 96% 30.20 in 10.0 mi WNW 3.5 mph - N/A   Overcast
3:52 AM 57.0 °F 55.0 °F 93% 30.20 in 10.0 mi Variable 5.8 mph - 0.00 in Rain Light Rain
4:52 AM 55.9 °F 54.0 °F 93% 30.22 in 10.0 mi North 5.8 mph - 0.00 in   Overcast
5:52 AM 55.0 °F 53.1 °F 93% 30.23 in 10.0 mi NNW 3.5 mph - N/A   Overcast
6:52 AM 55.0 °F 52.0 °F 89% 30.25 in 10.0 mi Calm Calm - N/A   Overcast
7:52 AM 54.0 °F 53.1 °F 97% 30.26 in 10.0 mi North - - 0.00 in   Overcast
8:52 AM 55.0 °F 53.1 °F 93% 30.27 in 9.0 mi North - - 0.00 in   Overcast
9:52 AM 55.9 °F 53.1 °F 90% 30.28 in 10.0 mi Calm Calm - N/A   Mostly Cloudy
10:52 AM 57.0 °F 54.0 °F 89% 30.29 in 10.0 mi Calm Calm - N/A   Partly Cloudy
11:52 AM 59.0 °F 53.1 °F 81% 30.27 in 10.0 mi NNE 8.1 mph - N/A   Clear
12:52 PM 61.0 °F 52.0 °F 72% 30.26 in 10.0 mi NNE 8.1 mph - N/A   Clear
1:52 PM 62.1 °F 51.1 °F 67% 30.25 in 10.0 mi North 5.8 mph - N/A   Clear
2:52 PM 62.1 °F 46.9 °F 58% 30.25 in 10.0 mi NNE 10.4 mph - N/A   Clear
4:52 PM 60.1 °F 50.0 °F 69% 30.25 in 10.0 mi NNE 4.6 mph - N/A   Clear
5:52 PM 57.9 °F 48.9 °F 72% 30.25 in 10.0 mi NNE 5.8 mph - N/A   Clear
6:52 PM 55.9 °F 48.9 °F 77% 30.26 in 10.0 mi North 5.8 mph - N/A   Clear
7:52 PM 53.1 °F 50.0 °F 89% 30.26 in 10.0 mi Calm Calm - N/A   Clear
8:52 PM 53.1 °F 50.0 °F 89% 30.27 in 10.0 mi Calm Calm - N/A   Clear
9:52 PM 51.1 °F 48.9 °F 92% 30.28 in 10.0 mi NE 3.5 mph - N/A   Clear
10:52 PM 48.9 °F 48.0 °F 97% 30.28 in 10.0 mi NNE 5.8 mph - N/A   Clear
11:52 PM 48.9 °F 46.9 °F 93% 30.27 in 10.0 mi NE 3.5 mph - N/A   Clear